Regional Weather Roundup
Issued by NWS

Home | Current Version | Previous Version | Graphics & Text | Print | Product List | Glossary Off
Versions: 1 2 3 4 5 6 7 8 9 10 11 12 13 14 15 16 17 18 19 20 21 22 23 24 25 26 27 28 29 30 31 32 33 34 35 36 37 38 39 40 41 42 43 44 45 46 47 48 49 50

000
ASUS43 KLMK 170110
RWRKY
KENTUCKY REGIONAL WEATHER ROUNDUP
NATIONAL WEATHER SERVICE LOUISVILLE KY
800 PM EST MON JAN 16 2017

NOTE "FAIR" INDICATES FEW OR NO CLOUDS BELOW 12,000 FEET
WITH NO SIGNIFICANT WEATHER AND/OR OBSTRUCTIONS TO VISIBILITY.

KYZ001>023-026-027-061>063-070>075-170200-
WESTERN AND SOUTH CENTRAL KENTUCKY

CITY           SKY/WX    TMP DP  RH WIND       PRES   REMARKS
PADUCAH        LGT RAIN  62  57  83 S8        29.97S
HENDERSON      CLOUDY    57  52  82 SE9       29.99F
OWENSBORO      MOCLDY    57  54  89 SE9       30.02F
HOPKINSVILLE   MOCLDY    63  53  70 S8        30.04F
BOWLING GREEN  CLOUDY    64  51  62 S7        30.08F
GLASGOW        CLOUDY    62  51  67 SE5       30.10F
$$

KYZ024-025-028>034-038-045-046-053-170200-
NORTH CENTRAL KENTUCKY

CITY           SKY/WX    TMP DP  RH WIND       PRES   REMARKS
LOUISVILLE/SDF CLOUDY    53  51  93 CALM      30.07F
LOUISVILLE/LOU CLOUDY    57  53  86 CALM      30.09F
FORT KNOX      CLOUDY    52  52 100 E5        30.06F
$$

KYZ035>037-039>044-047>052-055>060-089>105-170200-
NORTHEAST KENTUCKY

CITY           SKY/WX    TMP DP  RH WIND       PRES   REMARKS
LEXINGTON      LGT RAIN  58  53  84 SE5       30.14F
COVINGTON      LGT RAIN  50  49  96 E5        30.12F FOG
FRANKFORT      LGT RAIN  54  51  90 E3        30.11F
$$

KYZ054-064>069-076>088-106>120-170200-
SOUTHEAST KENTUCKY

CITY           SKY/WX    TMP DP  RH WIND       PRES   REMARKS
JACKSON        CLOUDY    60  49  66 SW3       30.18S
LONDON         CLOUDY    57  49  74 SE5       30.17F
SOMERSET       CLOUDY    59  52  77 S5        30.17S
MIDDLESBORO    PTCLDY    54  52  94 CALM      30.20F
MONTICELLO     CLOUDY    61  53  75 E8        30.17F
$$





USA.gov is the U.S. government's official web portal to all federal, state and local government web resources and services.